User: anonymous   Login
Location: Observatoire
(46.1952°N, 5.3391°E)
Time: 01:18:24
(UTC+02:00)
Language:

Max Valier Satellite - Orbit

View from above orbital plane
View from above orbital plane
View from above satellite
View from above satellite

Ground track
Ground track

The orbit data is extracted from the following two-line orbital elements,

1 42778U 17036P   24109.59785279  .00138746  00000-0  12582-2 0  9992
2 42778  97.1092 146.2997 0005643  91.3063 268.8845 15.67573575380188
Epoch (UTC): 18 April 2024 14:20:54
Eccentricity: 0.0005643
inclination: 97.1092°
perigee height: 362 km
apogee height: 369 km
right ascension of ascending node: 146.2997°
argument of perigee: 91.3063°
revolutions per day: 15.67573575
mean anomaly at epoch: 268.8845°
orbit number at epoch: 38018

The dashed part of the orbit path shows where the satellite is in the earth's shadow,  

DLR